This is the latest recevied weather packets stored in our database for station/object AC5CM. If no packets are shown the sender has not sent any weather packets the latest 10 day(s).
| Time | Temp. | Humidity | Pressure | Rain* | Wind** | Luminosity | Snow |
|---|---|---|---|---|---|---|---|
| 1777825397 | 25.56° C | 37% | 1024.2 hPa | 0 mm | - | - | - |
| 1777825094 | 25.56° C | 42% | 1024.1 hPa | 0 mm | - | - | - |
| 1777824790 | 25.56° C | 37% | 1024.1 hPa | 0 mm | - | - | - |
| 1777824487 | 25.56° C | 35% | 1024.1 hPa | 0 mm | - | - | - |
| 1777824182 | 25.56° C | 38% | 1024.2 hPa | 0 mm | - | - | - |
| 1777823878 | 25.56° C | 36% | 1024.2 hPa | 0 mm | - | - | - |
| 1777823577 | 25.56° C | 37% | 1024.1 hPa | 0 mm | - | - | - |
| 1777823273 | 25° C | 41% | 1024.4 hPa | 0 mm | - | - | - |
| 1777822970 | 25° C | 41% | 1024.2 hPa | 0 mm | - | - | - |
| 1777822669 | 25° C | 40% | 1024.2 hPa | 0 mm | - | - | - |
| 1777822366 | 25° C | 39% | 1024.2 hPa | 0 mm | - | - | - |
| 1777822064 | 25° C | 39% | 1024.3 hPa | 0 mm | - | - | - |
| 1777821762 | 25° C | 43% | 1024 hPa | 0 mm | - | - | - |
| 1777821458 | 24.44° C | 39% | 1023.9 hPa | 0 mm | - | - | - |
| 1777821156 | 24.44° C | 39% | 1024 hPa | 0 mm | - | - | - |
| 1777820853 | 24.44° C | 45% | 1024 hPa | 0 mm | - | - | - |
| 1777820549 | 23.89° C | 45% | 1023.7 hPa | 0 mm | - | - | - |
| 1777820245 | 23.89° C | 47% | 1023.7 hPa | 0 mm | - | - | - |
| 1777819943 | 23.89° C | 48% | 1023.7 hPa | 0 mm | - | - | - |
| 1777819640 | 23.89° C | 50% | 1023.9 hPa | 0 mm | - | - | - |
| 1777819338 | 23.89° C | 49% | 1023.7 hPa | 0 mm | - | - | - |
| 1777819034 | 23.89° C | 53% | 1023.6 hPa | 0 mm | - | - | - |
| 1777818732 | 23.89° C | 53% | 1023.5 hPa | 0 mm | - | - | - |
| 1777818428 | 23.89° C | 57% | 1023.9 hPa | 0 mm | - | - | - |
| 1777818125 | 23.33° C | 55% | 1023.6 hPa | 0 mm | - | - | - |
* Rain latest hour (hover to see other rain measurements)
** Current wind speed in m/s (hover to see current wind gust speed)